Regional Weather Roundup
Issued by NWS Little Rock, AR

Home | Current Version | Previous Version | Graphics & Text | Print | Product List | Glossary On
Versions: 1 2 3 4 5 6 7 8 9 10 11 12 13 14 15 16 17 18 19 20 21 22 23 24 25 26 27 28 29 30 31 32 33 34 35 36 37 38 39 40 41 42 43 44 45 46 47 48 49 50
000
ASUS44 KLZK 040405
RWRLZK

WEATHER ROUNDUP FOR ARKANSAS
NATIONAL WEATHER SERVICE LITTLE ROCK AR
1100 PM CDT THU SEP 03 2015

NOTE: "FAIR" INDICATES FEW OR NO CLOUDS BELOW 12,000 FEET WITH NO
SIGNIFICANT WEATHER AND/OR OBSTRUCTIONS TO VISIBILITY.

ARZ001-003-010-029-040500-
NORTHWEST ARKANSAS

CITY           SKY/WX    TMP DP  RH WIND       PRES   REMARKS
FAYETTEVILLE   CLEAR     69  69 100 CALM      29.97S FOG
FORT SMITH     CLEAR     78  69  73 NE3       29.92R
HARRISON       CLEAR     72  68  87 CALM      29.99S
BENTONVILLE    CLEAR     75  64  69 SE5       29.98S
ROGERS         CLEAR     74  71  91 E6        29.99R
SILOAM SPGS    CLEAR     75  64  69 E6        29.95S
HIGHFILL       CLEAR     75  69  81 E3        29.97R
$$

ARZ004-005-016-040500-
NORTH CENTRAL ARKANSAS

CITY           SKY/WX    TMP DP  RH WIND       PRES   REMARKS
BATESVILLE     CLEAR     75  70  83 CALM      29.96R
FLIPPIN        CLEAR     73  64  73 CALM      29.95S
MTN HOME       CLEAR     77  68  73 SE3       29.97R
$$

ARZ040-041-040500-
WEST CENTRAL ARKANSAS

CITY           SKY/WX    TMP DP  RH WIND       PRES   REMARKS
MENA           CLEAR     73  68  83 CALM      29.97S
MOUNT IDA      CLEAR     73  67  81 CALM      29.94R
$$

ARZ009-017-025-026-028-040500-
NORTHEAST ARKANSAS

CITY           SKY/WX    TMP DP  RH WIND       PRES   REMARKS
JONESBORO      CLEAR     71  70  96 CALM      29.95S
NEWPORT        CLEAR     76  73  90 E3        29.96R
WALNUT RIDGE   CLEAR     77  66  69 CALM      29.95S
BLYTHEVILLE    CLEAR     79  73  82 CALM      29.96S
$$

ARZ022-023-033-042-044-040500-
CENTRAL ARKANSAS

CITY           SKY/WX    TMP DP  RH WIND       PRES   REMARKS
LITTLE ROCK    CLEAR     81  69  67 CALM      29.94R
N LITTLE ROCK  CLEAR     82  70  67 SE6       29.94R HX  85
JACKSONVILLE   CLEAR     73  69  87 NE1       29.94R
SEARCY         CLEAR     74  71  91 CALM      29.96R
HOT SPRINGS    CLEAR     78  68  71 E5        29.95R
RUSSELLVILLE   CLEAR     77  68  73 E5        29.93R
$$

ARZ036-040500-
EAST ARKANSAS

CITY           SKY/WX    TMP DP  RH WIND       PRES   REMARKS
WEST MEMPHIS   CLEAR     74  73  97 CALM      29.94S
$$

ARZ050-053-066-070-073-040500-
SOUTHWEST ARKANSAS

CITY           SKY/WX    TMP DP  RH WIND       PRES   REMARKS
ARKADELPHIA    FAIR      74  72  93 CALM      29.93S
CAMDEN         CLEAR     73  68  83 CALM      29.92S
TEXARKANA      CLEAR     80  68  66 E3        29.93R
EL DORADO      CLEAR     75  69  81 CALM      29.93R
DE QUEEN       CLEAR     73  71  93 CALM      29.91R
$$

ARZ056-057-069-040500-
SOUTHEAST ARKANSAS

CITY           SKY/WX    TMP DP  RH WIND       PRES   REMARKS
PINE BLUFF     CLEAR     76  71  85 CALM      29.93S
STUTTGART      CLEAR     81  66  61 E6        29.94S
MONTICELLO     CLEAR     76  73  91 CALM      29.93S

$$





USA.gov is the U.S. government's official web portal to all federal, state and local government web resources and services.